MaSat-1 - Orbit

View from above orbital plane
View from above orbital plane
View from above satellite
View from above satellite

Ground track
Ground track

The orbit data is extracted from the following two-line orbital elements,

1 38081U 12006E   13142.68595701  .00088931  40774-5  18527-2 0   948
2 38081 069.4689 243.7476 0622772 171.3897 189.8588 14.44074446 66051
Epoch (UTC): 22 May 2013 16:27:46
Eccentricity: 0.0622772
inclination: 69.4689°
perigee height: 301 km
apogee height: 1188 km
right ascension of ascending node: 243.7476°
argument of perigee: 171.3897°
revolutions per day: 14.44074446
mean anomaly at epoch: 189.8588°
orbit number at epoch: 6605

The dashed part of the orbit path shows where the satellite is in the earth's shadow,  

Developed and maintained by Chris Peat, Heavens-Above GmbH. Please read the updated FAQ before sending e-mail. Imprint. DLR